Theta_e
334 330 334 332 333 332 332 331 334 339 333 331 338 334 334 336 337 337 337 337 334 330 330 331 334 336 338 333 334 334 333 331 331 327 324 326 325 326 330 329 329 328 328 328 324 321 314 311 312 318 319 321 320 320 318 318 321 323 322 322 321 320 319
330 332 329 328 330 333 332 332 335 330 332 335 330 334 336 335 334 335 336 335 332 334 329 330 334 335 336 336 333 333 336 333 332 329 328 327 326 325 326 324 327 327 327 328 328 326 319 312 311 313 314 318 319 319 318 319 319 321 320 319 319 319 318
330 329 328 328 329 333 333 334 332 331 329 334 337 335 335 331 334 336 332 335 334 329 329 331 333 335 336 334 335 334 335 332 334 329 328 327 327 328 327 326 323 323 322 322 324 323 321 321 313 312 313 312 310 315 320 317 318 318 317 319 318 317 316
331 330 326 326 328 331 329 330 332 331 331 330 333 335 333 331 333 333 334 333 332 333 331 329 331 329 332 334 335 336 333 332 331 330 329 328 327 327 327 326 323 322 320 318 320 321 320 318 313 313 314 314 312 312 318 317 315 314 315 318 317 316 315
332 328 327 326 327 327 329 330 333 332 328 331 333 332 331 331 333 332 332 331 331 333 333 335 332 329 330 331 333 333 333 331 333 330 329 328 329 327 327 326 325 324 324 322 323 324 321 321 317 313 313 312 311 309 313 317 312 312 312 312 313 315 315
331 330 330 329 329 329 330 330 328 328 328 328 330 328 329 331 331 334 331 331 330 329 330 330 329 328 329 329 329 330 330 329 330 330 329 329 328 328 326 327 326 326 326 327 325 324 324 322 320 313 312 312 306 307 307 308 307 308 310 310 311 311 313
331 330 331 330 331 330 332 331 331 329 329 329 328 329 329 331 329 327 329 330 330 329 329 327 329 328 329 325 326 327 328 330 330 330 330 330 330 329 328 326 326 326 324 326 325 323 322 321 317 314 309 309 308 306 307 306 306 304 305 307 308 310 311
330 330 329 331 332 332 333 331 333 330 329 328 327 329 330 330 331 331 330 328 325 327 328 328 330 327 326 324 325 327 327 327 328 328 328 327 326 325 325 325 323 321 323 324 323 322 322 321 321 316 310 306 307 306 304 305 304 303 303 304 308 309 311
330 330 329 330 333 336 333 334 331 332 328 326 326 328 330 331 328 326 325 326 328 328 328 328 328 324 326 325 323 325 323 327 326 324 321 322 322 323 322 321 317 316 317 319 317 316 318 323 320 318 313 310 307 304 306 304 304 302 305 302 305 308 309
329 329 327 330 331 334 335 332 333 329 327 326 326 329 328 329 328 325 323 324 326 327 326 326 326 326 324 323 322 321 319 320 319 318 320 319 319 319 318 318 316 316 317 318 318 319 320 320 321 325 316 314 313 305 303 302 303 304 303 304 301 304 308
334 328 327 327 328 330 330 330 329 327 325 326 327 328 327 325 324 323 323 322 323 325 327 327 324 323 324 323 322 320 321 322 320 321 320 320 321 322 320 319 319 318 320 318 319 318 317 316 316 318 315 315 314 313 308 303 304 307 304 304 304 302 305
332 328 327 326 327 327 326 327 327 327 325 326 325 326 324 323 324 322 322 321 323 322 323 323 324 321 320 318 318 319 321 320 319 318 320 321 321 321 320 319 320 320 322 321 321 321 321 322 319 315 316 316 317 316 309 307 304 308 310 304 306 306 305
332 328 328 327 327 325 323 324 326 325 325 324 324 324 323 322 321 321 320 319 320 320 321 322 319 320 321 319 320 318 318 317 317 316 318 320 320 320 318 318 318 319 320 317 317 317 316 317 318 316 316 317 315 316 312 309 305 305 310 307 307 306 308
331 330 329 329 329 325 323 324 326 326 324 324 324 323 321 320 318 320 318 318 317 320 320 321 321 321 320 319 317 317 317 315 315 317 318 318 319 318 317 316 316 318 318 317 317 318 316 316 317 318 317 315 314 316 313 309 305 305 308 316 313 308 310
330 328 329 328 328 324 322 324 326 324 324 324 323 322 319 322 320 320 317 316 318 317 319 319 321 321 319 319 319 321 319 317 315 316 319 317 317 319 319 316 317 318 320 317 318 313 314 316 314 315 313 315 312 315 314 312 308 306 305 311 308 308 310
330 332 329 329 327 322 322 324 325 325 324 323 324 323 321 322 320 319 319 319 316 317 317 319 322 321 320 319 319 321 320 318 319 317 316 316 314 317 317 316 316 317 320 318 317 315 316 314 315 313 313 314 313 313 313 313 312 308 307 308 312 307 309
329 329 330 328 329 324 323 324 325 325 325 322 321 326 321 321 321 321 320 317 317 317 318 321 320 318 320 320 320 319 317 318 319 319 317 315 315 316 316 316 316 317 318 316 316 315 316 317 315 314 314 315 314 314 314 317 312 313 309 307 309 305 309
326 328 328 328 329 326 325 324 325 323 328 325 323 326 320 324 321 320 321 317 316 317 318 318 318 319 321 321 321 321 318 318 319 319 319 316 319 316 316 315 315 316 317 316 315 316 315 315 316 315 315 312 312 315 316 314 314 312 312 310 309 310 313
325 327 328 330 331 329 327 325 324 325 324 324 327 326 321 322 319 318 318 317 316 317 317 318 317 317 317 320 321 320 320 320 320 319 319 317 317 318 318 317 317 316 317 316 316 317 316 315 317 315 315 313 312 315 316 316 313 311 311 311 311 310 309
327 327 327 327 330 331 330 328 324 322 323 324 327 326 326 323 324 323 317 319 318 318 317 317 319 320 319 321 320 320 321 320 321 321 320 319 318 319 318 319 317 319 319 318 318 317 316 316 317 315 315 317 314 313 314 314 312 312 311 308 308 312 310
327 327 327 327 328 328 329 330 328 326 325 323 323 322 324 324 324 323 322 321 321 319 320 319 319 318 318 322 321 321 322 320 319 321 320 320 319 319 320 320 319 319 319 320 318 318 317 317 316 315 316 316 315 315 314 315 312 311 311 311 309 308 308
328 328 327 329 328 329 329 330 329 328 328 326 328 324 322 322 323 322 322 323 323 322 322 321 323 320 320 318 321 319 321 319 320 319 320 319 320 319 318 320 319 318 320 319 311 310 309 312 318 316 316 316 315 315 313 313 313 313 311 310 309 310 308
326 327 327 326 326 327 327 329 329 328 327 326 324 325 326 324 321 323 322 322 322 324 323 323 319 311 313 319 319 321 321 320 319 319 319 318 319 320 322 320 319 321 313 310 306 302 300 300 305 309 308 311 314 314 313 312 312 311 311 309 308 306 305
327 326 326 328 328 327 326 327 327 328 328 326 324 325 326 324 323 323 322 322 322 323 321 316 302 305 306 308 318 321 320 320 320 320 320 319 320 321 318 320 320 316 314 313 308 300 300 298 296 295 295 297 303 314 313 313 312 311 309 309 307 307 305
325 326 326 325 326 326 326 325 325 326 327 325 323 324 326 325 325 322 322 320 319 316 317 308 303 301 304 308 311 324 324 322 322 321 321 321 321 321 319 318 319 320 319 318 316 311 304 299 296 294 294 293 292 293 298 306 307 308 307 307 307 307 305
323 325 325 325 325 327 324 323 324 324 324 324 323 323 325 326 322 322 322 321 319 318 319 308 304 303 300 301 303 311 323 322 322 322 321 322 321 318 318 318 318 319 321 317 318 318 314 305 295 294 293 294 294 292 292 293 297 306 307 307 307 307 305
321 322 324 324 327 327 327 324 325 324 323 325 323 323 324 323 322 322 321 319 318 320 319 307 300 302 301 299 298 302 321 323 323 322 323 323 319 317 315 313 316 318 319 319 319 319 318 311 306 303 303 304 303 297 292 292 293 295 301 309 308 306 308
314 315 320 324 324 323 325 326 325 324 322 321 322 323 322 322 323 322 321 319 320 320 320 305 299 299 298 299 298 298 315 320 322 321 321 319 319 318 316 316 317 318 319 318 319 316 317 311 307 306 306 307 305 304 306 305 305 308 309 310 308 308 306
314 313 314 316 319 321 323 323 323 325 324 323 323 324 323 323 322 321 321 320 320 318 319 303 298 297 296 297 298 309 315 316 319 319 316 317 319 320 319 319 319 320 319 317 311 303 309 311 308 307 306 307 307 303 296 293 292 294 299 301 300 301 298
310 312 313 313 313 316 317 321 323 323 323 323 322 322 322 321 322 322 321 320 319 319 317 308 301 300 297 296 298 312 314 314 316 316 317 317 319 318 319 321 320 319 319 317 308 300 300 304 310 309 308 308 307 304 300 298 293 291 291 291 291 291 290
307 309 310 311 312 314 316 316 317 321 321 320 320 320 321 321 322 322 321 320 320 319 319 312 302 301 298 297 300 312 314 313 315 316 315 317 315 314 307 307 314 318 318 313 296 298 298 307 311 310 309 308 307 305 302 302 302 298 291 291 290 290 290
305 307 309 310 312 312 313 314 315 316 317 318 318 320 318 317 318 320 322 321 317 319 320 313 299 298 297 296 300 312 314 313 314 315 315 314 314 309 306 302 304 314 311 302 295 296 297 306 312 312 309 308 307 305 303 302 302 300 300 300 298 298 297
305 307 307 308 310 312 312 312 313 313 314 314 314 315 316 316 316 316 319 320 319 318 319 318 303 295 296 295 297 311 315 314 313 312 313 314 312 309 306 303 298 294 293 292 291 292 293 296 305 310 310 309 306 306 305 304 306 303 303 303 302 300 300
304 306 306 307 308 308 309 310 311 312 312 312 313 314 315 315 314 316 318 320 319 319 319 318 313 293 294 294 294 300 314 315 314 312 313 311 311 308 304 302 299 293 291 291 291 292 292 293 297 305 304 300 299 301 303 302 299 298 301 299 299 300 300
304 305 305 305 304 304 306 308 309 310 310 310 311 312 313 313 312 312 316 318 320 318 317 312 318 298 293 294 294 294 309 316 313 313 310 309 310 308 304 300 297 292 291 291 291 291 292 292 293 296 292 289 288 292 300 303 302 300 300 300 298 297 298
303 304 304 304 303 303 304 304 306 308 308 309 309 309 310 312 312 311 313 318 318 318 317 313 306 304 294 294 294 293 297 305 301 312 310 310 309 306 301 298 294 292 291 291 291 291 291 291 292 291 289 289 289 289 294 299 298 300 299 298 298 297 295
301 302 302 303 303 303 303 304 304 305 305 306 307 308 309 310 310 310 310 314 315 312 314 314 305 301 300 293 293 293 294 293 292 306 312 311 306 301 298 296 293 290 290 290 290 290 290 290 290 288 288 289 290 292 298 299 297 299 295 296 295 295 296
Wind_Speed
2 4 3 3 3 3 3 4 3 2 4 4 2 2 3 2 1 2 0 2 2 7 6 6 5 3 2 3 6 4 3 5 4 4 4 3 2 1 2 1 2 2 2 3 2 1 5 6 4 5 5 5 6 5 5 6 4 5 6 5 6 7 6
4 3 3 3 3 2 2 3 2 3 4 3 3 1 2 2 3 2 2 2 4 3 5 4 2 1 2 3 3 4 2 5 5 2 4 4 3 2 3 1 1 1 2 2 2 2 3 6 6 4 3 3 5 6 5 4 3 3 5 7 7 7 7
4 3 3 3 3 2 2 2 3 4 4 1 2 3 2 3 2 2 3 1 3 5 5 3 3 3 2 3 2 3 3 4 5 4 5 4 3 4 4 3 2 0 4 3 2 2 3 3 5 6 4 6 5 2 4 5 4 3 4 5 6 8 7
3 3 4 4 3 2 2 2 3 4 3 4 2 1 2 2 3 3 2 2 3 3 2 3 3 3 4 4 3 2 3 5 4 4 5 6 4 3 4 5 4 2 3 2 3 1 1 2 4 5 5 6 5 4 4 5 5 5 5 5 7 7 7
3 4 3 4 4 3 3 3 2 4 4 3 3 3 3 2 3 3 3 4 3 2 2 1 2 4 4 4 3 3 4 5 3 4 4 5 5 4 4 5 5 4 3 3 3 2 4 3 4 6 6 7 6 3 4 3 4 5 5 6 5 6 7
3 3 3 3 3 3 3 3 3 3 4 3 4 3 0 1 2 3 4 4 3 4 3 2 2 6 4 3 4 5 5 6 4 3 3 4 5 5 5 6 5 3 1 3 4 4 3 3 2 7 7 6 6 4 3 4 3 4 4 5 5 5 6
5 4 3 2 2 3 2 2 2 3 4 3 3 2 1 2 4 5 4 4 4 3 2 3 3 3 4 5 5 5 5 5 5 5 4 4 4 4 6 7 10 9 7 6 5 5 5 3 5 4 7 6 6 7 6 4 5 5 4 6 6 6 6
7 5 5 3 2 2 2 2 2 2 4 4 4 2 2 2 2 3 3 5 5 3 2 1 2 5 6 6 4 4 5 4 4 3 3 3 3 3 3 3 4 7 8 7 4 4 5 7 4 6 7 8 5 5 5 5 5 6 4 4 6 6 5
7 6 6 4 2 2 1 1 2 3 5 5 4 2 2 2 3 4 4 3 3 3 1 1 3 4 4 4 3 4 4 3 5 6 5 4 3 2 3 4 5 5 4 5 6 4 4 3 3 6 6 5 6 4 4 5 4 5 6 5 5 6 6
7 6 7 4 4 2 2 2 2 5 5 4 3 3 3 3 3 3 4 4 3 3 3 3 3 3 4 4 5 6 6 5 6 6 4 4 4 4 5 5 5 4 5 4 5 4 5 4 4 4 1 2 3 6 4 5 4 4 3 5 5 3 5
3 7 6 6 4 3 3 2 4 5 5 3 3 2 3 3 3 4 3 3 3 3 2 2 3 4 3 3 4 4 4 4 4 3 3 3 3 3 6 7 6 6 4 4 4 4 5 5 6 6 7 4 5 2 4 6 4 2 2 5 3 4 4
1 6 6 6 4 4 4 3 3 4 5 3 3 3 3 3 3 3 3 3 3 3 3 3 2 4 4 4 4 3 4 4 4 4 3 4 3 4 5 6 4 3 3 3 3 4 4 3 3 6 6 6 6 6 9 7 5 3 3 4 4 4 3
1 6 6 6 5 4 5 3 3 4 4 4 4 4 3 4 3 3 3 3 3 3 3 1 4 3 3 3 3 3 4 5 5 5 5 4 4 5 5 5 4 4 4 5 4 5 5 5 6 5 5 5 6 8 9 7 7 4 3 3 3 4 3
3 3 5 4 4 4 5 3 3 3 3 3 3 3 4 4 4 3 4 3 3 3 3 2 1 2 2 3 4 4 4 4 4 3 5 5 4 5 6 4 4 5 5 4 4 4 4 4 4 5 5 5 6 4 7 8 7 5 3 1 2 4 3
4 5 5 4 3 5 6 4 3 3 3 3 3 3 4 3 4 3 3 4 3 3 3 3 2 1 3 2 1 2 3 4 5 4 3 4 5 4 4 5 5 4 3 5 4 3 3 3 5 3 6 5 6 6 6 3 6 4 3 1 4 4 2
2 2 6 4 4 5 5 4 3 3 3 4 3 3 3 3 3 3 3 4 3 3 3 3 2 3 3 2 1 2 4 4 3 4 5 4 4 4 5 5 4 3 3 4 3 4 6 7 6 8 7 6 6 5 4 3 4 5 5 3 4 4 2
4 1 3 3 3 5 5 4 3 3 3 4 3 2 4 3 3 3 4 4 4 3 4 3 3 3 2 1 1 3 4 4 2 3 4 4 5 4 4 4 3 3 3 4 4 4 4 3 5 5 5 4 4 3 4 2 4 2 5 5 1 4 4
5 3 3 3 3 5 4 4 3 3 2 3 3 2 4 3 3 3 3 4 4 4 4 3 3 3 2 1 1 2 3 2 1 2 2 5 5 4 4 4 3 3 2 3 2 2 3 5 3 4 3 6 5 2 2 3 3 3 4 2 2 2 1
6 5 3 3 2 3 4 4 4 3 3 3 2 2 4 2 3 3 3 3 4 4 4 4 4 4 3 2 2 2 2 2 1 1 2 4 4 4 3 4 4 3 2 3 0 3 3 2 3 4 5 4 5 3 3 1 2 1 2 3 2 3 1
5 6 5 5 3 2 2 3 5 5 4 3 2 1 1 2 1 2 4 3 4 4 4 4 4 3 3 2 3 2 3 2 1 1 2 2 2 3 2 4 4 3 2 1 2 4 3 4 4 2 2 3 2 3 1 1 0 1 2 0 1 2 4
5 6 5 6 6 5 3 2 2 3 4 4 3 3 2 2 1 2 2 2 2 4 3 3 3 4 4 3 3 3 1 3 3 2 3 2 3 3 1 3 4 4 3 2 5 3 2 2 2 3 3 2 2 2 0 0 2 2 1 1 2 1 1
3 2 3 2 3 3 3 2 2 2 2 3 2 3 3 3 2 2 3 1 1 3 3 3 2 3 2 4 3 4 3 3 3 3 3 3 4 4 4 3 6 3 3 10 11 9 8 7 3 3 4 3 1 1 1 3 3 0 1 2 3 1 0
5 4 5 4 4 4 2 2 2 1 2 1 3 3 2 3 3 3 2 2 1 2 2 3 1 7 2 3 4 4 4 4 4 4 4 4 4 4 4 5 2 7 10 8 11 12 11 9 7 5 2 5 1 2 2 2 3 3 2 3 4 3 4
3 4 4 2 2 3 3 2 2 1 2 5 3 3 2 2 2 1 1 1 1 2 6 9 13 4 4 4 5 4 4 4 4 4 5 5 3 7 4 2 2 4 8 7 7 11 12 10 9 7 6 6 6 3 2 1 1 2 2 1 1 1 3
3 3 3 3 4 3 3 3 2 1 1 1 2 1 2 1 4 4 5 6 9 8 3 3 7 11 7 1 1 2 3 3 4 4 4 5 4 6 6 4 2 2 4 5 4 5 7 8 9 8 6 6 7 10 8 5 2 3 3 4 3 3 3
3 2 2 3 0 2 4 2 2 3 2 1 2 2 2 1 4 2 1 1 5 4 2 4 5 6 9 10 3 2 3 4 4 4 4 5 4 7 5 3 1 0 1 6 5 5 5 6 7 8 8 7 7 6 7 8 6 3 1 3 3 3 3
2 3 3 3 2 0 2 3 4 3 1 2 3 2 2 1 1 1 1 1 2 4 3 5 8 11 13 12 7 2 3 3 4 5 5 2 6 5 3 6 5 5 3 6 5 5 4 6 6 6 4 3 2 3 3 5 6 4 2 0 1 1 3
6 5 3 1 2 3 2 2 3 4 7 6 4 4 3 3 4 3 3 3 4 6 6 9 10 12 13 14 10 3 4 3 3 2 6 8 3 7 9 8 6 7 7 6 6 7 6 7 6 6 5 4 4 3 1 2 3 2 3 4 5 6 5
6 6 5 4 3 2 1 3 3 2 3 5 6 5 3 3 4 5 5 5 5 6 5 8 10 12 12 13 10 6 5 5 2 2 4 1 5 7 8 8 7 6 6 5 7 11 7 7 5 6 6 5 5 5 4 0 1 5 6 5 5 4 4
9 8 7 6 5 4 4 2 1 3 3 3 3 5 6 6 6 6 6 6 7 6 7 11 15 14 12 13 8 6 7 6 4 3 4 5 4 2 5 9 8 7 7 7 9 12 9 11 5 6 6 6 6 5 3 2 2 7 9 10 9 8 8
9 8 8 8 7 7 5 5 5 3 2 3 4 4 5 6 6 7 8 8 8 8 9 14 20 18 15 15 12 9 7 6 5 5 4 3 2 3 1 2 4 6 9 7 12 15 15 10 7 6 6 6 7 6 4 3 2 3 6 7 7 6 5
8 7 7 7 6 7 6 5 5 5 5 3 3 3 3 4 5 7 8 8 10 9 6 8 15 16 16 15 12 8 8 7 6 6 6 6 4 3 2 4 2 7 7 9 12 14 11 6 3 6 5 6 5 6 6 6 4 3 2 2 1 1 1
6 5 6 6 6 6 6 6 5 5 6 6 5 4 3 4 5 5 4 9 9 9 7 6 11 15 14 14 15 11 8 8 4 6 6 7 7 5 5 4 6 10 13 11 10 10 8 6 1 3 7 6 5 5 7 5 4 4 4 3 3 4 4
8 7 7 6 6 6 6 6 6 6 5 6 6 5 5 5 5 4 4 5 8 8 8 8 8 14 14 15 15 14 9 8 6 7 7 6 6 6 6 4 5 5 12 12 12 13 13 11 9 5 7 7 3 3 7 5 4 6 2 1 1 1 2
8 7 7 7 7 7 6 7 7 6 6 6 7 8 7 6 6 5 3 4 5 7 8 12 7 10 14 15 15 16 10 6 7 8 7 7 6 7 7 6 5 6 12 13 14 14 14 13 12 8 7 9 9 12 6 4 3 2 3 4 3 3 3
9 8 8 8 8 9 8 8 8 8 7 8 9 10 9 7 6 6 4 3 2 4 3 4 4 6 11 14 16 15 13 5 12 9 9 7 7 7 8 7 6 10 14 14 14 15 14 14 11 7 10 11 10 6 2 1 2 2 0 0 2 3 4
9 9 10 10 9 9 8 8 8 7 8 8 7 8 7 7 7 7 5 4 4 6 6 6 6 6 7 11 9 10 12 11 5 6 8 7 6 10 9 8 8 13 14 14 13 13 13 11 8 9 9 8 6 2 0 1 3 3 1 0 1 1 4
Wind_Direction
132 119 132 90 91 96 100 122 134 165 139 146 136 136 148 117 172 146 158 12 211 172 166 171 169 204 194 135 140 153 150 141 151 108 167 202 178 131 62 90 37 49 75 15 90 125 131 127 102 61 44 40 64 79 88 72 80 117 124 104 81 64 60
117 129 121 121 115 116 124 186 154 100 63 35 108 132 72 124 123 99 23 30 347 8 102 82 43 64 48 96 124 130 132 95 88 139 148 166 134 117 97 33 359 63 77 54 58 53 106 127 111 99 100 72 72 67 64 63 58 63 100 112 105 96 80
157 154 128 112 105 173 156 79 87 112 117 147 20 33 72 74 19 91 88 41 30 51 62 71 106 83 51 46 66 93 101 108 124 153 134 131 116 116 131 89 71 30 56 28 17 36 47 38 127 130 132 108 90 76 128 145 125 95 74 81 101 103 99
160 130 117 135 148 146 140 165 168 148 135 104 102 66 105 111 89 49 108 94 49 21 61 104 83 92 98 96 49 85 102 106 100 106 99 103 120 111 92 113 132 186 142 144 186 146 124 154 138 126 150 136 138 159 195 155 134 107 97 97 103 108 106
126 129 151 148 167 163 169 183 126 113 110 135 125 115 49 53 100 114 45 56 50 56 53 10 126 119 104 102 133 95 92 106 111 95 91 113 125 129 122 109 129 177 127 154 184 127 148 199 153 156 148 128 142 135 159 141 118 122 120 111 103 108 115
145 143 155 161 177 150 183 149 161 121 129 147 129 89 20 134 146 133 120 108 77 21 19 67 77 77 68 75 83 90 80 87 96 90 103 107 131 142 145 135 137 142 240 168 148 146 218 217 185 164 144 140 126 144 118 137 135 127 116 110 110 110 115
138 147 161 169 172 159 165 144 169 137 125 117 107 111 199 101 72 66 73 88 112 101 67 21 26 91 115 96 74 77 85 102 102 112 125 142 159 171 154 163 172 166 172 168 160 156 189 200 219 152 119 127 150 151 174 149 126 118 98 92 85 75 73
145 155 163 158 183 133 126 196 99 108 113 99 88 79 56 115 132 128 113 86 62 67 47 30 74 64 58 68 70 78 86 101 117 119 112 102 101 107 130 146 125 136 157 168 165 190 186 206 207 131 128 148 178 169 157 128 111 99 122 105 110 102 96
151 156 138 152 137 128 154 116 89 92 95 91 107 139 141 86 84 88 87 109 115 109 141 130 78 79 93 99 112 114 111 121 116 105 99 95 90 73 73 68 64 50 66 121 163 164 194 190 133 114 142 159 150 127 97 103 105 123 137 109 99 114 114
156 149 141 145 130 127 103 92 102 96 98 107 117 127 132 136 108 90 86 85 90 71 60 67 92 93 93 91 75 71 67 64 79 88 91 92 96 101 106 106 103 81 53 46 40 31 36 33 49 57 88 108 95 131 139 117 124 123 83 120 128 102 116
141 132 123 126 126 128 120 110 100 108 115 127 132 123 96 94 100 109 113 94 97 139 125 114 96 100 102 95 92 103 121 116 97 87 87 93 73 61 72 69 62 65 60 52 48 41 51 45 39 49 42 70 67 65 161 120 91 64 107 47 87 131 118
129 122 125 131 146 138 134 128 138 120 118 142 141 125 125 120 118 106 116 121 103 85 83 82 110 91 88 94 126 134 125 109 105 102 94 89 92 93 92 91 86 91 94 88 58 39 29 7 53 55 57 46 33 42 100 113 101 9 64 86 55 50 84
135 132 141 137 132 139 129 138 136 125 147 148 139 167 154 135 124 143 120 124 134 126 134 124 91 125 130 151 129 105 118 131 128 133 140 130 113 110 115 118 131 135 117 87 85 78 54 46 48 63 54 55 44 61 65 73 95 72 21 101 103 118 106
128 124 119 125 131 129 129 126 129 138 157 154 156 175 155 151 151 136 137 143 132 126 113 121 138 130 156 102 113 154 165 138 134 118 122 139 134 98 93 97 88 84 96 115 104 81 75 75 63 72 84 63 45 55 105 115 109 109 81 69 114 78 50
156 151 133 147 139 127 126 141 148 159 180 142 182 181 154 163 143 155 153 132 121 134 136 130 164 125 83 97 129 155 134 113 112 139 126 85 84 104 102 81 63 42 44 60 9 143 150 143 163 132 61 56 43 34 31 87 116 121 131 224 107 124 119
136 125 139 158 147 143 134 143 171 163 178 154 195 193 144 150 160 168 146 133 143 143 142 131 94 88 95 145 177 80 77 91 99 95 99 110 101 81 80 78 67 49 41 61 20 35 50 27 58 69 68 52 50 29 45 72 114 134 150 182 157 149 111
136 153 123 143 149 132 136 144 174 175 184 160 189 207 131 164 174 162 150 146 143 146 127 115 106 121 152 145 125 91 83 90 106 101 111 112 101 94 94 88 75 63 53 36 27 33 41 95 78 86 100 115 103 82 11 32 92 156 161 151 206 124 171
141 165 153 143 146 136 146 157 169 183 181 175 177 183 130 196 162 170 154 172 146 156 130 143 137 139 131 114 85 90 122 113 108 128 113 103 116 111 113 110 117 90 74 58 22 14 19 26 0 122 131 123 111 128 81 34 357 30 45 114 142 140 165
162 160 141 124 158 151 154 165 161 190 174 190 188 179 145 211 177 178 172 188 162 148 148 150 150 148 139 173 125 147 141 140 163 98 82 104 115 108 130 120 118 104 86 102 315 41 23 48 360 33 19 71 101 67 86 86 69 58 74 14 126 141 108
160 146 159 135 154 169 190 186 167 197 167 174 173 176 154 215 165 228 177 205 162 160 151 163 150 151 143 164 152 164 127 155 156 107 95 105 114 107 128 121 118 121 114 108 87 66 42 42 30 54 10 49 59 116 108 160 222 154 135 120 303 155 153
163 149 168 158 169 172 180 223 214 208 166 163 167 173 181 245 170 275 222 216 168 154 151 152 161 153 169 159 158 170 154 158 189 165 157 173 136 133 137 107 119 126 139 128 103 96 80 47 52 0 3 49 43 92 60 18 97 11 47 256 272 106 154
52 115 110 155 136 150 169 193 211 235 181 156 143 172 169 199 227 219 272 232 194 133 146 152 178 169 179 177 163 185 183 187 182 181 165 188 164 139 170 101 67 60 76 104 89 84 69 59 39 17 352 333 65 71 354 6 358 68 315 321 305 300 358
170 174 145 153 171 171 177 181 193 343 327 168 153 173 222 200 204 196 246 268 204 120 127 142 167 173 211 189 183 190 196 193 202 182 181 196 180 158 96 108 142 109 72 78 105 96 87 77 70 82 52 349 319 83 56 1 348 338 5 339 338 15 25
120 125 125 153 116 156 147 100 41 18 18 36 9 340 303 258 231 215 226 276 297 60 36 18 9 124 87 283 194 199 192 201 211 205 189 189 181 102 110 97 106 109 103 109 95 109 104 97 85 71 56 60 32 63 48 24 327 332 343 336 269 28 47
107 122 137 154 153 146 145 147 153 175 148 37 339 351 321 23 51 43 46 48 61 61 60 299 32 333 320 238 284 210 199 202 215 222 210 188 186 115 119 113 90 165 143 141 134 106 106 107 103 97 84 70 68 63 75 99 55 33 25 356 356 28 42
101 83 102 88 315 155 150 146 159 155 146 198 207 225 285 50 68 71 84 72 86 96 161 257 267 262 290 294 260 280 232 207 215 221 229 214 136 112 79 55 68 284 163 137 139 158 154 121 97 103 102 87 59 76 92 80 86 103 356 359 5 34 83
95 137 142 147 175 173 210 176 162 147 146 255 220 223 218 177 130 136 181 99 113 148 154 240 223 249 250 255 261 280 261 242 221 219 216 235 90 122 106 230 179 175 190 180 184 172 154 149 149 127 124 122 115 62 75 119 115 105 132 99 13 13 65
8 8 348 115 168 190 192 204 182 174 153 191 222 215 213 208 178 185 192 164 163 156 169 194 224 237 241 235 228 226 256 281 284 307 13 31 41 160 190 213 201 187 186 183 182 184 171 160 156 152 146 157 147 173 133 35 28 25 37 37 49 60 52
5 357 345 349 341 310 192 183 203 190 190 188 189 204 203 192 195 204 197 172 166 159 174 207 224 226 236 248 225 217 231 241 246 67 90 302 241 173 196 195 197 188 174 177 189 194 186 145 146 147 153 175 148 97 73 12 325 70 76 75 67 74 79
354 348 355 337 330 322 325 318 255 171 186 207 217 195 193 202 205 202 198 189 189 177 182 220 237 230 217 228 222 228 229 232 217 170 141 191 260 286 194 183 184 176 174 174 189 198 182 149 159 161 162 166 138 122 120 153 123 87 95 95 102 104 111
340 340 336 331 337 342 336 335 320 317 262 219 217 223 210 201 202 202 197 194 194 199 200 204 217 227 216 210 202 220 221 224 215 138 165 184 186 188 294 93 170 180 174 167 167 165 163 154 162 168 173 158 142 136 143 153 140 81 80 86 84 98 109
319 320 318 320 333 329 329 321 320 317 311 301 272 248 234 237 219 200 193 195 188 192 194 188 198 211 213 203 200 215 218 219 213 171 162 175 176 149 68 12 265 175 136 149 149 138 142 148 151 185 164 157 153 158 175 164 151 128 140 147 154 144 175
306 315 314 315 315 312 316 316 305 314 307 300 292 285 268 246 234 225 189 172 193 197 193 185 187 204 204 198 196 206 211 223 197 160 157 174 165 147 114 93 44 105 123 117 107 100 91 89 76 229 171 173 179 176 146 147 141 157 168 189 173 181 210
313 314 310 307 308 308 304 300 304 294 298 294 286 280 277 286 282 261 216 176 185 196 188 203 198 177 190 194 201 206 209 223 187 161 165 160 162 143 127 111 107 117 118 110 99 89 82 70 66 67 89 89 86 94 112 107 103 99 120 131 232 217 241
312 305 296 291 285 277 276 277 278 281 269 265 270 267 261 255 260 258 232 219 183 166 180 190 220 180 183 195 203 206 212 206 158 157 151 185 157 153 144 146 133 133 108 98 95 90 87 86 83 83 87 99 78 64 77 112 119 154 191 191 208 208 214
309 303 296 293 293 289 286 282 277 279 282 281 281 281 278 271 258 257 237 184 132 126 107 193 211 189 203 205 202 204 213 217 159 163 195 193 181 134 104 114 128 126 110 105 100 101 99 95 85 91 86 72 67 62 29 166 118 132 71 11 40 24 6
312 315 313 312 303 293 283 276 276 272 271 268 268 262 257 255 254 255 244 195 142 140 158 189 200 181 197 211 213 208 214 234 257 236 202 199 131 120 122 125 129 115 104 99 94 91 91 93 107 103 87 87 87 116 232 129 145 172 162 87 59 327 269